QPF
0.00 0.00 0.00 0.00 0.01 0.01 0.02 0.02 0.02 0.02 0.02 0.02 0.02 0.02 0.04 0.05 0.05 0.05 0.05 0.07 0.05 0.04 0.04 0.04 0.03 0.02 0.02 0.03 0.03 0.03 0.04 0.07 0.06 0.03 0.02 0.02 0.03 0.04
0.01 0.00 0.00 0.00 0.00 0.01 0.01 0.01 0.01 0.02 0.02 0.01 0.01 0.01 0.03 0.04 0.05 0.05 0.05 0.06 0.07 0.06 0.04 0.04 0.04 0.03 0.02 0.02 0.02 0.02 0.03 0.03 0.03 0.02 0.02 0.02 0.02 0.03
0.01 0.01 0.01 0.01 0.01 0.01 0.01 0.01 0.01 0.01 0.01 0.01 0.01 0.01 0.02 0.03 0.04 0.04 0.04 0.04 0.06 0.07 0.05 0.04 0.04 0.04 0.04 0.03 0.02 0.02 0.03 0.02 0.02 0.02 0.01 0.01 0.02 0.03
0.01 0.02 0.02 0.03 0.02 0.01 0.01 0.01 0.01 0.02 0.01 0.01 0.01 0.01 0.02 0.02 0.03 0.03 0.03 0.04 0.04 0.04 0.04 0.03 0.02 0.02 0.02 0.03 0.03 0.03 0.03 0.03 0.02 0.02 0.01 0.01 0.02 0.02
0.02 0.02 0.02 0.02 0.02 0.02 0.01 0.01 0.01 0.01 0.01 0.01 0.01 0.01 0.01 0.02 0.02 0.02 0.03 0.03 0.03 0.03 0.03 0.02 0.02 0.01 0.01 0.02 0.02 0.03 0.03 0.03 0.02 0.02 0.02 0.01 0.01 0.02
0.01 0.01 0.01 0.02 0.02 0.02 0.01 0.01 0.01 0.01 0.01 0.01 0.01 0.02 0.02 0.03 0.03 0.04 0.03 0.02 0.02 0.02 0.02 0.02 0.01 0.01 0.01 0.01 0.01 0.01 0.02 0.02 0.02 0.03 0.03 0.02 0.01 0.02
0.01 0.01 0.01 0.02 0.02 0.02 0.01 0.02 0.01 0.01 0.02 0.02 0.02 0.03 0.02 0.03 0.03 0.04 0.05 0.03 0.02 0.01 0.01 0.01 0.01 0.01 0.01 0.01 0.01 0.01 0.02 0.02 0.02 0.02 0.03 0.02 0.01 0.01
0.01 0.01 0.01 0.01 0.02 0.01 0.01 0.01 0.01 0.01 0.01 0.02 0.02 0.02 0.02 0.02 0.03 0.03 0.04 0.04 0.03 0.02 0.01 0.01 0.01 0.01 0.01 0.01 0.01 0.01 0.02 0.02 0.03 0.02 0.03 0.02 0.01 0.00
0.00 0.01 0.01 0.01 0.01 0.01 0.01 0.01 0.00 0.01 0.01 0.01 0.02 0.02 0.02 0.02 0.02 0.03 0.04 0.05 0.04 0.03 0.02 0.01 0.01 0.01 0.00 0.00 0.00 0.00 0.01 0.01 0.02 0.01 0.01 0.02 0.01 0.01
0.00 0.00 0.01 0.02 0.02 0.02 0.01 0.01 0.00 0.00 0.00 0.01 0.01 0.01 0.01 0.01 0.01 0.02 0.03 0.04 0.04 0.03 0.02 0.02 0.01 0.01 0.00 0.00 0.00 0.00 0.00 0.01 0.01 0.01 0.01 0.01 0.01 0.01
0.00 0.00 0.02 0.03 0.03 0.03 0.02 0.01 0.01 0.00 0.00 0.01 0.01 0.01 0.01 0.01 0.01 0.01 0.01 0.03 0.04 0.03 0.02 0.02 0.01 0.01 0.00 0.00 0.00 0.00 0.00 0.00 0.01 0.01 0.01 0.01 0.01 0.01
0.00 0.00 0.01 0.03 0.04 0.03 0.03 0.03 0.02 0.01 0.01 0.01 0.01 0.00 0.00 0.00 0.01 0.01 0.01 0.01 0.02 0.03 0.02 0.02 0.01 0.02 0.02 0.01 0.00 0.00 0.00 0.00 0.01 0.01 0.01 0.01 0.01 0.01
0.01 0.01 0.01 0.02 0.02 0.02 0.02 0.03 0.03 0.02 0.01 0.00 0.00 0.01 0.01 0.01 0.01 0.00 0.01 0.01 0.01 0.02 0.02 0.02 0.02 0.02 0.02 0.01 0.01 0.01 0.00 0.00 0.01 0.01 0.01 0.02 0.01 0.01
0.02 0.02 0.01 0.02 0.02 0.03 0.03 0.03 0.04 0.03 0.02 0.01 0.01 0.01 0.01 0.01 0.01 0.01 0.01 0.01 0.01 0.02 0.03 0.03 0.03 0.03 0.03 0.02 0.02 0.02 0.01 0.01 0.00 0.01 0.01 0.01 0.01 0.01
0.02 0.02 0.02 0.02 0.02 0.02 0.04 0.05 0.04 0.04 0.04 0.03 0.01 0.01 0.01 0.01 0.01 0.01 0.01 0.01 0.01 0.01 0.01 0.02 0.03 0.04 0.04 0.04 0.03 0.03 0.02 0.01 0.01 0.01 0.01 0.01 0.01 0.01
0.02 0.03 0.03 0.02 0.02 0.01 0.01 0.02 0.03 0.04 0.05 0.05 0.04 0.03 0.02 0.01 0.02 0.02 0.02 0.02 0.02 0.03 0.02 0.02 0.02 0.03 0.04 0.04 0.04 0.04 0.03 0.02 0.01 0.01 0.01 0.01 0.01 0.01
0.02 0.02 0.03 0.03 0.02 0.02 0.01 0.01 0.02 0.04 0.05 0.05 0.05 0.04 0.04 0.03 0.02 0.01 0.02 0.03 0.03 0.03 0.03 0.03 0.02 0.02 0.02 0.03 0.04 0.04 0.04 0.03 0.02 0.01 0.01 0.01 0.01 0.01
0.03 0.03 0.03 0.04 0.05 0.05 0.04 0.04 0.03 0.03 0.04 0.04 0.05 0.05 0.04 0.04 0.04 0.02 0.01 0.01 0.02 0.02 0.02 0.03 0.03 0.02 0.03 0.03 0.03 0.03 0.03 0.03 0.03 0.02 0.01 0.01 0.00 0.01
0.03 0.02 0.02 0.03 0.04 0.05 0.06 0.07 0.06 0.04 0.04 0.03 0.03 0.04 0.04 0.03 0.04 0.04 0.03 0.02 0.02 0.02 0.01 0.01 0.02 0.02 0.02 0.03 0.03 0.02 0.03 0.02 0.03 0.04 0.03 0.01 0.00 0.00
0.03 0.02 0.02 0.02 0.03 0.03 0.04 0.05 0.05 0.05 0.04 0.03 0.03 0.03 0.03 0.03 0.02 0.03 0.04 0.03 0.02 0.02 0.01 0.01 0.01 0.02 0.02 0.02 0.03 0.03 0.03 0.03 0.03 0.03 0.03 0.03 0.02 0.01
0.02 0.02 0.02 0.02 0.02 0.03 0.02 0.03 0.04 0.05 0.05 0.04 0.03 0.03 0.03 0.02 0.02 0.02 0.03 0.05 0.04 0.03 0.02 0.01 0.01 0.01 0.02 0.03 0.03 0.03 0.04 0.04 0.03 0.03 0.03 0.03 0.03 0.02
0.03 0.03 0.02 0.02 0.02 0.03 0.03 0.03 0.03 0.04 0.04 0.04 0.04 0.04 0.04 0.04 0.03 0.03 0.03 0.04 0.04 0.04 0.03 0.02 0.01 0.02 0.02 0.02 0.03 0.03 0.03 0.04 0.05 0.04 0.04 0.04 0.02 0.02
0.04 0.03 0.03 0.02 0.02 0.02 0.02 0.03 0.04 0.04 0.04 0.04 0.04 0.04 0.04 0.04 0.04 0.04 0.04 0.05 0.05 0.05 0.05 0.05 0.04 0.04 0.03 0.03 0.03 0.03 0.04 0.04 0.05 0.05 0.05 0.04 0.03 0.03
MSLP
1026.82 1026.86 1026.92 1027.02 1027.16 1027.36 1027.60 1027.91 1028.25 1028.61 1028.99 1029.34 1029.66 1029.93 1030.14 1030.28 1030.35 1030.38 1030.36 1030.32 1030.27 1030.20 1030.14 1030.06 1029.96 1029.84 1029.68 1029.49 1029.25 1029.00 1028.73 1028.48 1028.27 1028.11 1028.02 1027.99 1028.02 1028.08
1026.79 1026.82 1026.86 1026.92 1027.02 1027.17 1027.38 1027.65 1027.98 1028.35 1028.75 1029.15 1029.53 1029.88 1030.16 1030.38 1030.53 1030.61 1030.64 1030.65 1030.63 1030.60 1030.58 1030.56 1030.52 1030.47 1030.39 1030.27 1030.10 1029.89 1029.66 1029.43 1029.21 1029.03 1028.90 1028.83 1028.82 1028.84
1026.82 1026.83 1026.85 1026.89 1026.95 1027.07 1027.24 1027.48 1027.78 1028.15 1028.56 1028.99 1029.42 1029.82 1030.17 1030.45 1030.65 1030.79 1030.86 1030.90 1030.91 1030.92 1030.93 1030.95 1030.98 1031.00 1030.99 1030.95 1030.86 1030.72 1030.54 1030.33 1030.13 1029.93 1029.78 1029.67 1029.61 1029.59
1026.88 1026.88 1026.89 1026.91 1026.96 1027.05 1027.19 1027.40 1027.69 1028.04 1028.45 1028.89 1029.34 1029.78 1030.16 1030.49 1030.73 1030.91 1031.01 1031.07 1031.11 1031.14 1031.18 1031.23 1031.31 1031.38 1031.45 1031.48 1031.47 1031.41 1031.30 1031.14 1030.96 1030.77 1030.60 1030.47 1030.37 1030.30
1026.91 1026.92 1026.94 1026.96 1027.00 1027.07 1027.20 1027.39 1027.66 1027.99 1028.38 1028.81 1029.27 1029.71 1030.12 1030.47 1030.74 1030.94 1031.07 1031.15 1031.20 1031.24 1031.29 1031.37 1031.48 1031.60 1031.72 1031.83 1031.90 1031.91 1031.87 1031.78 1031.64 1031.49 1031.32 1031.17 1031.05 1030.95
1026.86 1026.89 1026.92 1026.95 1027.00 1027.08 1027.21 1027.38 1027.62 1027.93 1028.29 1028.71 1029.14 1029.58 1029.98 1030.34 1030.63 1030.84 1030.99 1031.08 1031.14 1031.19 1031.25 1031.34 1031.47 1031.62 1031.78 1031.95 1032.08 1032.17 1032.21 1032.19 1032.12 1032.01 1031.87 1031.73 1031.60 1031.49
1026.66 1026.72 1026.78 1026.84 1026.91 1027.01 1027.14 1027.31 1027.53 1027.80 1028.13 1028.51 1028.91 1029.32 1029.71 1030.06 1030.35 1030.57 1030.74 1030.84 1030.91 1030.97 1031.04 1031.14 1031.27 1031.43 1031.62 1031.82 1032.01 1032.17 1032.28 1032.34 1032.34 1032.29 1032.20 1032.10 1031.98 1031.88
1026.27 1026.37 1026.47 1026.57 1026.68 1026.81 1026.95 1027.12 1027.33 1027.57 1027.86 1028.19 1028.55 1028.92 1029.28 1029.61 1029.90 1030.14 1030.31 1030.44 1030.52 1030.59 1030.67 1030.76 1030.89 1031.06 1031.26 1031.48 1031.71 1031.92 1032.09 1032.22 1032.30 1032.32 1032.30 1032.24 1032.16 1032.08
1025.70 1025.84 1025.98 1026.13 1026.29 1026.46 1026.63 1026.82 1027.02 1027.24 1027.49 1027.78 1028.09 1028.41 1028.74 1029.05 1029.34 1029.58 1029.77 1029.91 1030.02 1030.10 1030.18 1030.27 1030.39 1030.55 1030.74 1030.97 1031.21 1031.45 1031.68 1031.87 1032.01 1032.11 1032.15 1032.16 1032.13 1032.07
1024.99 1025.16 1025.36 1025.56 1025.78 1026.00 1026.21 1026.42 1026.63 1026.84 1027.07 1027.32 1027.59 1027.87 1028.16 1028.45 1028.72 1028.97 1029.17 1029.33 1029.46 1029.56 1029.64 1029.73 1029.84 1029.97 1030.15 1030.36 1030.60 1030.85 1031.10 1031.33 1031.53 1031.68 1031.79 1031.85 1031.87 1031.86
1024.21 1024.41 1024.65 1024.91 1025.19 1025.46 1025.73 1025.98 1026.21 1026.43 1026.65 1026.88 1027.11 1027.36 1027.63 1027.89 1028.16 1028.40 1028.61 1028.79 1028.93 1029.04 1029.13 1029.21 1029.30 1029.41 1029.55 1029.73 1029.94 1030.18 1030.43 1030.68 1030.91 1031.10 1031.26 1031.37 1031.43 1031.44
1023.44 1023.66 1023.92 1024.23 1024.56 1024.89 1025.21 1025.51 1025.78 1026.03 1026.26 1026.48 1026.71 1026.94 1027.18 1027.44 1027.69 1027.93 1028.15 1028.34 1028.49 1028.60 1028.69 1028.75 1028.82 1028.90 1029.00 1029.13 1029.31 1029.51 1029.74 1029.97 1030.21 1030.42 1030.59 1030.72 1030.81 1030.85
1022.72 1022.93 1023.20 1023.54 1023.90 1024.28 1024.66 1025.01 1025.33 1025.62 1025.87 1026.11 1026.35 1026.58 1026.82 1027.07 1027.32 1027.56 1027.78 1027.98 1028.13 1028.25 1028.33 1028.38 1028.42 1028.46 1028.52 1028.60 1028.72 1028.87 1029.06 1029.26 1029.46 1029.66 1029.82 1029.96 1030.04 1030.08
1022.08 1022.25 1022.49 1022.82 1023.19 1023.60 1024.01 1024.41 1024.77 1025.11 1025.41 1025.69 1025.95 1026.21 1026.46 1026.72 1026.98 1027.23 1027.46 1027.66 1027.83 1027.94 1028.02 1028.06 1028.07 1028.08 1028.09 1028.12 1028.18 1028.27 1028.39 1028.54 1028.69 1028.85 1028.98 1029.09 1029.16 1029.19
1021.51 1021.59 1021.77 1022.05 1022.39 1022.79 1023.21 1023.63 1024.03 1024.41 1024.77 1025.09 1025.40 1025.70 1025.99 1026.28 1026.56 1026.84 1027.09 1027.31 1027.48 1027.61 1027.68 1027.72 1027.71 1027.69 1027.67 1027.65 1027.65 1027.68 1027.74 1027.82 1027.91 1028.01 1028.10 1028.16 1028.20 1028.20
1020.98 1020.94 1021.02 1021.20 1021.48 1021.82 1022.21 1022.62 1023.04 1023.45 1023.84 1024.22 1024.58 1024.93 1025.28 1025.62 1025.95 1026.26 1026.55 1026.80 1027.01 1027.15 1027.25 1027.29 1027.28 1027.25 1027.20 1027.14 1027.10 1027.08 1027.07 1027.09 1027.12 1027.15 1027.18 1027.19 1027.19 1027.16
1020.50 1020.32 1020.25 1020.30 1020.45 1020.70 1021.02 1021.38 1021.78 1022.19 1022.60 1023.02 1023.43 1023.84 1024.25 1024.65 1025.04 1025.42 1025.76 1026.06 1026.31 1026.50 1026.63 1026.70 1026.71 1026.68 1026.63 1026.56 1026.49 1026.43 1026.37 1026.34 1026.31 1026.28 1026.25 1026.22 1026.17 1026.12
1020.11 1019.76 1019.53 1019.41 1019.41 1019.52 1019.72 1019.99 1020.32 1020.70 1021.10 1021.53 1021.98 1022.43 1022.90 1023.36 1023.82 1024.26 1024.67 1025.04 1025.35 1025.60 1025.78 1025.90 1025.96 1025.96 1025.92 1025.86 1025.79 1025.70 1025.63 1025.55 1025.48 1025.41 1025.35 1025.27 1025.20 1025.12
1019.87 1019.37 1018.96 1018.67 1018.50 1018.45 1018.49 1018.64 1018.86 1019.15 1019.50 1019.90 1020.34 1020.82 1021.31 1021.82 1022.34 1022.84 1023.32 1023.76 1024.14 1024.46 1024.71 1024.89 1025.01 1025.06 1025.07 1025.04 1024.98 1024.90 1024.82 1024.73 1024.64 1024.55 1024.46 1024.37 1024.28 1024.20
1019.87 1019.23 1018.68 1018.23 1017.88 1017.65 1017.53 1017.51 1017.59 1017.76 1018.01 1018.33 1018.72 1019.16 1019.65 1020.17 1020.71 1021.25 1021.78 1022.28 1022.73 1023.12 1023.44 1023.70 1023.88 1024.00 1024.06 1024.07 1024.05 1024.01 1023.94 1023.86 1023.78 1023.69 1023.59 1023.50 1023.41 1023.33
1020.17 1019.45 1018.79 1018.21 1017.71 1017.31 1017.01 1016.81 1016.72 1016.73 1016.83 1017.03 1017.31 1017.67 1018.09 1018.57 1019.08 1019.62 1020.17 1020.69 1021.19 1021.63 1022.02 1022.34 1022.59 1022.78 1022.90 1022.98 1023.01 1023.00 1022.97 1022.92 1022.86 1022.78 1022.70 1022.62 1022.54 1022.48
1020.80 1020.05 1019.33 1018.66 1018.04 1017.50 1017.03 1016.66 1016.38 1016.20 1016.12 1016.14 1016.26 1016.47 1016.77 1017.15 1017.59 1018.07 1018.58 1019.09 1019.59 1020.06 1020.49 1020.86 1021.17 1021.42 1021.61 1021.74 1021.83 1021.87 1021.89 1021.87 1021.84 1021.79 1021.74 1021.68 1021.62 1021.57
1021.70 1020.98 1020.25 1019.54 1018.84 1018.19 1017.59 1017.05 1016.59 1016.21 1015.92 1015.74 1015.65 1015.67 1015.80 1016.01 1016.31 1016.68 1017.10 1017.56 1018.02 1018.48 1018.91 1019.31 1019.65 1019.95 1020.19 1020.38 1020.52 1020.61 1020.67 1020.69 1020.70 1020.68 1020.65 1020.61 1020.58 1020.54
Thickness
5652 5652 5650 5650 5649 5649 5648 5647 5644 5642 5640 5640 5639 5638 5637 5635 5634 5635 5636 5635 5635 5635 5635 5635 5635 5635 5635 5635 5636 5636 5636 5637 5638 5638 5639 5640 5642 5643
5646 5646 5646 5646 5645 5644 5643 5643 5642 5640 5636 5636 5634 5633 5631 5631 5629 5630 5630 5629 5629 5629 5630 5630 5630 5630 5630 5630 5630 5630 5630 5631 5631 5632 5633 5634 5635 5636
5643 5642 5641 5640 5639 5639 5638 5637 5636 5635 5631 5630 5629 5628 5627 5626 5625 5624 5625 5625 5625 5624 5624 5624 5624 5624 5624 5625 5625 5625 5625 5625 5625 5626 5626 5627 5628 5629
5639 5638 5637 5635 5634 5633 5632 5632 5631 5630 5627 5624 5623 5622 5622 5621 5620 5619 5620 5621 5621 5620 5619 5619 5619 5619 5619 5619 5619 5619 5620 5619 5619 5620 5620 5621 5621 5622
5635 5633 5633 5631 5629 5628 5627 5627 5626 5625 5623 5621 5619 5618 5616 5615 5615 5614 5615 5616 5616 5615 5614 5614 5614 5614 5614 5614 5614 5614 5614 5614 5614 5614 5614 5614 5614 5614
5630 5629 5628 5627 5625 5624 5622 5622 5621 5620 5618 5617 5615 5613 5612 5611 5610 5610 5611 5611 5611 5611 5610 5610 5609 5609 5609 5609 5609 5609 5609 5609 5608 5608 5608 5608 5607 5607
5625 5624 5623 5620 5618 5617 5617 5616 5615 5614 5613 5612 5611 5609 5608 5606 5606 5606 5606 5606 5606 5606 5606 5607 5606 5606 5605 5605 5604 5603 5603 5603 5603 5602 5602 5601 5601 5601
5621 5619 5618 5615 5612 5610 5609 5609 5608 5608 5608 5607 5607 5606 5606 5604 5602 5601 5600 5600 5601 5601 5601 5602 5602 5602 5602 5601 5600 5598 5598 5597 5597 5596 5595 5595 5595 5595
5616 5615 5613 5611 5607 5607 5605 5603 5603 5602 5601 5603 5603 5604 5603 5601 5598 5597 5597 5597 5597 5597 5596 5597 5597 5597 5597 5596 5594 5593 5592 5591 5591 5590 5590 5589 5588 5588
5610 5609 5608 5607 5604 5602 5601 5600 5600 5599 5597 5597 5598 5599 5598 5596 5595 5594 5593 5592 5592 5591 5590 5591 5592 5592 5592 5591 5589 5587 5587 5586 5585 5584 5584 5583 5583 5582
5605 5604 5603 5602 5598 5595 5596 5597 5596 5595 5592 5591 5590 5590 5590 5589 5588 5587 5587 5586 5587 5587 5586 5586 5587 5587 5587 5588 5585 5583 5582 5581 5580 5579 5578 5578 5577 5576
5600 5599 5595 5594 5591 5588 5590 5591 5590 5590 5588 5587 5586 5585 5585 5584 5582 5583 5583 5582 5584 5584 5582 5580 5581 5581 5582 5583 5582 5580 5578 5576 5575 5574 5573 5572 5571 5571
5594 5593 5591 5586 5584 5582 5582 5584 5583 5582 5582 5582 5582 5582 5581 5580 5578 5578 5578 5578 5578 5579 5578 5575 5576 5577 5578 5578 5577 5576 5574 5573 5572 5570 5568 5567 5566 5565
5587 5586 5584 5580 5577 5576 5576 5576 5575 5574 5576 5576 5577 5577 5576 5575 5574 5573 5572 5572 5572 5573 5572 5570 5571 5571 5571 5571 5572 5570 5569 5568 5567 5566 5565 5563 5561 5560
5579 5577 5575 5572 5571 5571 5570 5569 5568 5569 5569 5569 5570 5570 5570 5569 5568 5566 5566 5565 5565 5565 5565 5564 5564 5564 5564 5565 5566 5564 5563 5562 5561 5561 5560 5559 5557 5555
5570 5569 5567 5565 5565 5565 5565 5564 5563 5563 5563 5563 5563 5563 5562 5561 5561 5560 5559 5559 5558 5558 5557 5557 5556 5556 5557 5557 5557 5557 5556 5556 5555 5554 5553 5553 5552 5551
5562 5562 5561 5561 5561 5561 5561 5560 5558 5557 5556 5556 5555 5555 5555 5554 5554 5553 5552 5552 5552 5552 5551 5549 5548 5547 5548 5549 5549 5550 5550 5549 5548 5547 5546 5545 5545 5545
5553 5554 5554 5555 5555 5555 5554 5553 5552 5550 5549 5548 5548 5548 5547 5547 5547 5546 5545 5545 5545 5545 5543 5541 5539 5539 5539 5541 5541 5543 5543 5542 5541 5539 5538 5538 5539 5538
5545 5546 5547 5547 5547 5547 5546 5545 5544 5543 5541 5541 5540 5540 5540 5539 5539 5538 5537 5537 5537 5537 5536 5534 5532 5533 5535 5538 5538 5532 5534 5534 5532 5531 5531 5531 5531 5531
5538 5539 5539 5538 5538 5537 5537 5536 5535 5534 5533 5533 5532 5532 5532 5532 5531 5531 5530 5529 5528 5528 5527 5527 5526 5526 5528 5530 5529 5527 5523 5525 5524 5523 5522 5521 5521 5519
5530 5530 5530 5529 5528 5528 5527 5527 5526 5525 5525 5524 5524 5523 5523 5523 5523 5523 5522 5520 5519 5519 5519 5520 5519 5516 5516 5516 5517 5518 5517 5514 5514 5514 5513 5512 5512 5512
5522 5521 5521 5520 5520 5519 5518 5517 5517 5516 5516 5516 5516 5515 5514 5514 5514 5513 5513 5512 5512 5511 5511 5510 5508 5506 5506 5508 5510 5511 5509 5507 5504 5502 5502 5502 5503 5505
5513 5513 5512 5512 5511 5510 5509 5509 5509 5508 5508 5507 5507 5507 5507 5506 5506 5505 5504 5503 5503 5502 5502 5501 5499 5498 5498 5499 5500 5500 5500 5498 5497 5495 5494 5493 5491 5491